TimeEDT,TemperatureF,Dew PointF,Humidity,Sea Level PressureIn,VisibilityMPH,Wind Direction,Wind SpeedMPH,Gust SpeedMPH,PrecipitationIn,Events,Conditions,WindDirDegrees,DateUTC
12:55 AM,51.1,50.0,96,28.97,5.0,ENE,4.6,-,0.03,Rain,Light Rain,60,2013-11-01 04:55:00
1:55 AM,51.1,50.0,96,28.95,10.0,Calm,Calm,-,0.01,Rain,Light Rain,0,2013-11-01 05:55:00
2:55 AM,51.1,48.9,92,28.89,10.0,NNW,4.6,-,0.01,Rain,Light Rain,330,2013-11-01 06:55:00
3:32 AM,51.1,48.9,92,28.89,10.0,NNW,5.8,-,0.00,Rain,Light Rain,330,2013-11-01 07:32:00
3:55 AM,51.1,48.9,92,28.88,10.0,NNW,5.8,-,0.01,Rain,Light Rain,330,2013-11-01 07:55:00
4:04 AM,51.1,48.9,92,28.88,8.0,NW,6.9,-,0.00,Rain,Light Rain,310,2013-11-01 08:04:00
4:17 AM,51.1,48.9,92,28.88,7.0,WNW,6.9,-,0.00,Rain,Light Rain,300,2013-11-01 08:17:00
4:55 AM,50.0,48.0,93,28.88,3.0,NW,6.9,-,0.02,Rain,Light Rain,310,2013-11-01 08:55:00
5:06 AM,50.0,48.0,93,28.88,3.0,NW,8.1,-,0.01,Rain,Light Rain,310,2013-11-01 09:06:00
5:31 AM,50.0,48.0,93,28.89,6.0,NW,10.4,-,0.03,Rain,Light Rain,310,2013-11-01 09:31:00
5:44 AM,50.0,48.0,93,28.90,5.0,NW,15.0,24.2,0.05,Rain,Light Rain,310,2013-11-01 09:44:00
5:55 AM,50.0,46.9,89,28.91,5.0,NW,16.1,25.3,0.06,Rain,Light Rain,310,2013-11-01 09:55:00
6:15 AM,50.0,45.0,83,28.92,10.0,North,23.0,31.1,0.01,Rain,Light Rain,350,2013-11-01 10:15:00
6:33 AM,48.9,45.0,86,28.95,10.0,NW,18.4,26.5,0.01,Rain,Light Rain,320,2013-11-01 10:33:00
6:55 AM,48.9,46.0,90,28.98,7.0,NW,12.7,21.9,0.01,Rain,Light Rain,320,2013-11-01 10:55:00
7:03 AM,48.0,46.0,93,28.98,7.0,NW,13.8,20.7,0.01,Rain,Light Rain,310,2013-11-01 11:03:00
7:13 AM,48.0,45.0,89,28.99,10.0,NW,15.0,25.3,0.01,Rain,Light Rain,310,2013-11-01 11:13:00
7:35 AM,48.0,45.0,89,29.02,10.0,NW,17.3,24.2,0.01,Rain,Light Rain,310,2013-11-01 11:35:00
7:55 AM,48.0,45.0,89,29.05,10.0,NW,12.7,21.9,0.02,Rain,Light Rain,310,2013-11-01 11:55:00
8:02 AM,48.0,45.0,89,29.05,10.0,NW,13.8,21.9,0.00,Rain,Light Rain,310,2013-11-01 12:02:00
8:19 AM,48.0,44.1,86,29.07,10.0,WNW,12.7,23.0,0.00,Rain,Light Rain,300,2013-11-01 12:19:00
8:27 AM,46.9,44.1,90,29.09,10.0,NW,17.3,24.2,0.00,Rain,Light Rain,310,2013-11-01 12:27:00
8:55 AM,46.9,43.0,86,29.13,10.0,WNW,16.1,26.5,0.01,Rain,Light Rain,300,2013-11-01 12:55:00
9:47 AM,46.0,42.1,86,29.19,10.0,NW,10.4,-,0.00,,Overcast,310,2013-11-01 13:47:00
9:55 AM,46.0,42.1,86,29.20,10.0,WNW,10.4,20.7,0.00,,Overcast,300,2013-11-01 13:55:00
10:55 AM,46.0,42.1,86,29.26,10.0,NW,9.2,-,0.00,Rain,Light Rain,310,2013-11-01 14:55:00
11:53 AM,44.6,39.2,81,29.31,10.0,NW,8.1,-,0.00,,Overcast,310,2013-11-01 15:53:00
11:55 AM,44.1,39.0,82,29.31,10.0,NW,8.1,-,0.00,,Overcast,310,2013-11-01 15:55:00
12:23 PM,44.1,39.0,82,29.34,10.0,WNW,8.1,-,N/A,,Overcast,300,2013-11-01 16:23:00
12:40 PM,44.1,39.9,85,29.35,8.0,WNW,6.9,-,0.00,Rain,Light Rain,290,2013-11-01 16:40:00
12:55 PM,44.1,39.9,85,29.37,10.0,WNW,6.9,-,0.00,,Overcast,300,2013-11-01 16:55:00
1:25 PM,44.1,39.0,82,29.38,10.0,NW,6.9,-,0.00,,Overcast,310,2013-11-01 17:25:00
1:55 PM,45.0,39.0,80,29.39,10.0,NW,10.4,-,0.00,,Overcast,310,2013-11-01 17:55:00
2:55 PM,44.1,37.0,76,29.42,10.0,WNW,9.2,19.6,0.00,Rain,Light Rain,300,2013-11-01 18:55:00
3:55 PM,44.1,37.0,76,29.46,10.0,WNW,6.9,-,0.00,,Overcast,300,2013-11-01 19:55:00
4:55 PM,43.0,36.0,76,29.49,10.0,NNW,5.8,-,N/A,,Overcast,330,2013-11-01 20:55:00
5:55 PM,42.1,36.0,79,29.53,10.0,NW,5.8,-,N/A,,Overcast,320,2013-11-01 21:55:00
6:55 PM,42.1,35.1,76,29.56,10.0,Variable,5.8,-,0.00,,Overcast,0,2013-11-01 22:55:00
7:55 PM,41.0,36.0,82,29.60,10.0,NNW,4.6,-,N/A,,Overcast,340,2013-11-01 23:55:00
8:13 PM,41.0,36.0,82,29.60,10.0,North,5.8,-,N/A,,Overcast,360,2013-11-02 00:13:00
8:28 PM,39.9,35.1,83,29.60,10.0,North,6.9,-,N/A,,Overcast,10,2013-11-02 00:28:00
8:55 PM,39.9,34.0,79,29.62,10.0,North,4.6,-,0.00,Rain,Light Rain,10,2013-11-02 00:55:00
9:55 PM,39.0,33.1,79,29.64,10.0,North,5.8,-,0.00,,Overcast,10,2013-11-02 01:55:00
10:15 PM,39.0,33.1,79,29.63,10.0,North,8.1,-,N/A,,Overcast,10,2013-11-02 02:15:00
10:55 PM,39.0,33.1,79,29.66,10.0,NNE,3.5,-,N/A,,Overcast,30,2013-11-02 02:55:00
11:55 PM,37.9,30.9,76,29.68,10.0,NNE,9.2,-,N/A,,Overcast,30,2013-11-02 03:55:00